Volver al catálogo

THORAD DELTA 1 DEB

ActivoLEO
NORAD 8435·DEBRIS·🇺🇸 United States

Lanzado Nov 15, 1974 desde Vandenberg Space Force Base

Loading…

Próximos Pases (próximas 24 horas)

TLE

ActualizadoSource: Space-Track

Época: Sep 14, 2026, 01:50 UTC

1 08435U 74089CL  26257.07666935 -.00000032  00000-0  72817-4 0  9997
2 08435 101.5482 114.4308 0165809  11.2426 143.4747 12.20832682310085

Sigue THORAD DELTA 1 DEB en tiempo real con AllMySat

Download on the App Store